Location: Unspecified
(54.1780°N, 0.0000°E)
Time: 12:54:42
(UTC+00:00)

Altair - Pass Details

Date: 25 June 2019
Orbit: 1501 x 1683 km, 47.2° (Epoch: 21 July)

Event Time Altitude Azimuth Distance (km) Brightness Sun altitude
Rises 17:14:18 0° 185° (S) 4,666 10.0 25.7°
Reaches altitude 10° 17:18:36 10° 168° (SSE) 3,715 9.4 25.1°
Maximum altitude 17:24:15 18° 130° (SE) 3,179 8.8 24.3°
Drops below altitude 10° 17:30:00 10° 92° (E) 3,811 9.1 23.5°
Sets 17:34:28 0° 76° (ENE) 4,835 9.6 22.8°
